星链-31020 (STARLINK-31020 )

导读 | 星芒AI

STARLINK-31020 是 SpaceX Starlink 项目中的一颗低轨通信卫星,属于第 14 批组网发射的“星链”卫星之一。该卫星于 2023 年 9 月 由猎鹰 9 号火箭送入近地轨道,旨在为全球用户提供高速互联网服务。Starlink 卫星采用先进推进系统和激光通信技术,具备高带宽、低延迟特性,广泛应用于偏远地区网络覆盖。STARLINK-31020 的成功部署进一步增强了 Starlink 网络的稳定性和覆盖范围。

基本信息
目录编号:
58509
目录名称:
STARLINK-31020
国际标识:
2023-191B
轨道中心:
EARTH
卫星名称:
星链-31020
卫星全名:
星链-31020 (STARLINK-31020 )
卫星状态:
在轨 (已飞行694 天)
发射日期:
2023-12-07 UTC
国别 :
美国 (US)
星等 :
--
轨道信息
数据来源 国际轨道数据 AOE轨道数据
星历时间 2025-10-31T02:06:55+0800
19小时前
查看轨道信息
2025-10-27T08:00:00+0800
4天前
查看轨道信息
半长轴 6937.219km 6937.222km
偏心率 0.0001342 0.0001346
轨道倾角 43.004° 43.004°
近地点辐角 263.831° 256.940°
升交点赤经 93.901° 114.309°
平近点角 96.238° 289.581°
近地点 558.153km 558.153km
远地点 560.015km 560.021km
周期 95.838分钟 95.838分钟
每日圈数 15.025355 15.025345
详细信息
固有亮度:
5
最大亮度:
0.3
卫星平台:
Starlink v2.0 mini
覆盖范围:
全球
运营商:
太空探索技术公司
运营商所在国:
美国
制造商(研发单位):
太空探索技术公司
制造商所在国:
美国
使用方式:
暂无
卫星简介
星链(Starlink)计划是由太空探索技术公司(SpaceX)提出的一个巨型低轨卫星互联网星座项目,计划在2019年至2024年间在太空搭建由约1.2万颗卫星组成的“星链”网络,其中1584颗将部署在地球上空550千米处的近地轨道,并从2020年开始工作。该卫星仍在工作。
2D轨道图
3D轨道图
轨道高度分析图
轨道倾角分析图
轨道综合分析图
查看轨道综合分析图